カタログに戻る

USA 223

運用中軍事GEO
NORAD 37232·PAYLOAD·🇺🇸 United States

打ち上げ Nov 21, 2010 から Cape Canaveral Space Force Station

Loading…

TLE

最新Source: Mike McCants

元期: Sep 14, 2026, 23:22 UTC

1 37232U 10063A   26257.97422611  .00000000  00000-0  00000-0 0    04
2 37232   9.6457  80.5758 0024461 254.9275 104.8094  1.00270000 18335

AllMySatでUSA 223をリアルタイム追跡

Download on the App Store